Flag for Poland

Past Weather in 54°23'53"N, 18°23'37"E, Poland — Yesterday and Last 2 Weeks

Now
57 °F

Passing clouds.


Feels Like: 55 °F
Forecast: 56 / 42 °F
Wind: 8 mph from South

Location: Gdansk-Rebiechowo

Current Time: Apr 8, 2020 at 11:31:46 am

Latest Report: Apr 8, 2020 at 11:00 am


Visibility: N/A

Pressure: 30.42 "Hg

Humidity: 41%

Dew Point: 34 °F

Location of 54°23'53"N, 18°23'37"ELocation

Past Weather in 54°23'53"N, 18°23'37"E — Graph

°F

54°23'53"N, 18°23'37"E Temperature Yesterday

Maximum temperature yesterday: 70 °F (at 1:00 pm)
Minimum temperature yesterday: 43 °F (at 11:30 pm)
Average temperature yesterday: 55 °F

High & Low Weather Summary for the Past Weeks

 TemperatureHumidityPressure
High70 °F (Apr 7, 1:00 pm)100% (Mar 29, 10:00 am)30.72 "Hg (Mar 29, 10:00 am)
Low21 °F (Mar 31, 4:30 am)20% (Apr 6, 5:30 pm)29.45 "Hg (Apr 3, 1:00 am)
Average40 °F60%30.21 "Hg
* Reported Mar 24 9:00 am — Apr 8 10:00 am, 54°23'53"N, 18°23'37"E. Weather by CustomWeather, © 2020

Note: Actual official high and low records may vary slightly from our data, if they occured in-between our weather recording intervals... More about our weather records

54°23'53"N, 18°23'37"E Weather History for the Previous 24 Hours

Scroll right to see more
 ConditionsComfort  
Time TempWeatherWind HumidityBarometerVisibility
10:00 am
Wed, Apr 8
55 °FPassing clouds.7 mph44%30.45 "HgN/A
9:30 am52 °FPassing clouds.3 mph54%30.45 "HgN/A
9:00 am48 °FPassing clouds.3 mph62%30.45 "HgN/A
8:30 am45 °FSunny.1 mph71%30.45 "Hg10 mi
8:00 am41 °FSunny.1 mph81%30.45 "Hg10 mi
7:30 am37 °FSunny.1 mph87%30.45 "Hg10 mi
7:00 am36 °FSunny.1 mph87%30.45 "Hg10 mi
6:30 am36 °FSunny.1 mph87%30.45 "Hg10 mi
6:00 am34 °FSunny.2 mph93%30.45 "Hg10 mi
5:30 am36 °FClear.2 mph87%30.45 "Hg10 mi
5:00 am36 °FClear.2 mph87%30.45 "Hg10 mi
4:30 am37 °FClear.1 mph87%30.45 "Hg10 mi
4:00 am37 °FClear.1 mph87%30.45 "Hg10 mi
3:30 am37 °FPassing clouds.3 mph87%30.45 "HgN/A
3:00 am39 °FClear.5 mph81%30.45 "Hg10 mi
2:30 am41 °FClear.3 mph76%30.45 "Hg10 mi
2:00 am41 °FClear.5 mph76%30.45 "Hg10 mi
1:30 am41 °FClear.5 mph76%30.48 "Hg10 mi
1:00 am41 °FClear.6 mph81%30.48 "Hg10 mi
12:30 am43 °FClear.6 mph76%30.45 "Hg10 mi
12:00 am43 °FClear.6 mph76%30.45 "Hg10 mi
11:30 pm
Tue, Apr 7
43 °FClear.7 mph76%30.45 "Hg10 mi
11:00 pm45 °FClear.6 mph71%30.45 "Hg10 mi
10:30 pm45 °FClear.7 mph71%30.45 "Hg10 mi
10:00 pm46 °FClear.5 mph66%30.45 "Hg10 mi
9:30 pm46 °FClear.7 mph66%30.45 "Hg10 mi
9:00 pm46 °FClear.12 mph66%30.45 "Hg10 mi
8:30 pm48 °FClear.9 mph62%30.45 "Hg10 mi
8:00 pm48 °FClear.12 mph62%30.45 "Hg10 mi
7:30 pm50 °FSunny.17 mph58%30.42 "Hg10 mi
7:00 pm54 °FSunny.16 mph51%30.42 "Hg10 mi
6:30 pm55 °FSunny.22 mph44%30.42 "Hg10 mi
6:00 pm57 °FSunny.22 mph44%30.39 "Hg10 mi
5:30 pm57 °FSunny.23 mph44%30.39 "Hg10 mi
5:00 pm59 °FSunny.23 mph45%30.39 "Hg10 mi
4:30 pm59 °FSunny.22 mph48%30.36 "Hg10 mi
4:00 pm59 °FSunny.21 mph55%30.36 "Hg10 mi
3:30 pm61 °FSunny.22 mph59%30.36 "Hg10 mi
3:00 pm63 °FSunny.23 mph52%30.36 "Hg10 mi
2:30 pm64 °FSunny.23 mph40%30.33 "Hg10 mi
2:00 pm68 °FPassing clouds.24 mph35%30.30 "HgN/A
1:30 pm70 °FPassing clouds.16 mph29%30.30 "HgN/A
1:00 pm70 °FSunny.14 mph27%30.30 "Hg10 mi
12:30 pm68 °FSunny.9 mph30%30.30 "Hg10 mi
12:00 pm66 °FPassing clouds.9 mph32%30.30 "HgN/A
11:30 am64 °FSunny.12 mph34%30.30 "Hg10 mi
11:00 am63 °FSunny.12 mph34%30.30 "Hg10 mi
Weather by CustomWeather, © 2020

See weather overview

Advertising